QPF
0.00 0.00 0.01 0.01 0.02 0.02 0.03 0.04 0.06 0.04 0.01 0.02 0.03 0.02 0.01 0.01 0.02 0.03 0.04 0.05 0.07 0.07 0.05 0.03 0.02 0.01 0.01 0.04 0.17 0.34 0.45 0.55 0.50 0.41 0.30 0.21 0.15 0.08
0.00 0.00 0.01 0.02 0.02 0.02 0.02 0.02 0.03 0.05 0.04 0.02 0.03 0.04 0.03 0.02 0.02 0.02 0.03 0.05 0.05 0.06 0.06 0.04 0.02 0.01 0.01 0.01 0.05 0.18 0.33 0.44 0.50 0.46 0.45 0.36 0.25 0.17
0.00 0.01 0.01 0.02 0.02 0.02 0.02 0.02 0.02 0.03 0.04 0.02 0.01 0.02 0.04 0.04 0.04 0.03 0.03 0.04 0.04 0.05 0.06 0.04 0.02 0.01 0.01 0.01 0.02 0.06 0.19 0.31 0.41 0.46 0.45 0.42 0.35 0.25
0.01 0.01 0.02 0.02 0.02 0.02 0.02 0.02 0.02 0.02 0.03 0.02 0.01 0.01 0.03 0.04 0.05 0.05 0.04 0.05 0.05 0.06 0.06 0.05 0.03 0.02 0.01 0.01 0.01 0.03 0.08 0.22 0.30 0.36 0.41 0.39 0.34 0.30
0.02 0.03 0.03 0.03 0.03 0.02 0.03 0.03 0.02 0.02 0.02 0.02 0.01 0.01 0.02 0.04 0.05 0.07 0.08 0.08 0.07 0.07 0.06 0.05 0.03 0.02 0.01 0.01 0.01 0.01 0.03 0.09 0.21 0.27 0.35 0.40 0.38 0.32
0.03 0.04 0.04 0.05 0.05 0.06 0.07 0.05 0.03 0.03 0.03 0.02 0.01 0.01 0.01 0.03 0.04 0.06 0.08 0.10 0.11 0.08 0.06 0.05 0.03 0.02 0.01 0.01 0.00 0.00 0.01 0.04 0.11 0.22 0.27 0.36 0.38 0.36
0.04 0.04 0.05 0.05 0.09 0.15 0.12 0.08 0.05 0.04 0.02 0.01 0.01 0.01 0.01 0.02 0.03 0.05 0.06 0.09 0.13 0.13 0.08 0.05 0.03 0.01 0.01 0.01 0.01 0.00 0.01 0.02 0.04 0.11 0.22 0.27 0.35 0.38
0.06 0.05 0.04 0.04 0.03 0.04 0.06 0.07 0.06 0.04 0.02 0.02 0.02 0.02 0.02 0.02 0.02 0.03 0.06 0.08 0.12 0.15 0.13 0.07 0.04 0.02 0.01 0.01 0.01 0.00 0.01 0.01 0.02 0.05 0.10 0.18 0.24 0.31
0.08 0.06 0.05 0.03 0.02 0.01 0.01 0.01 0.01 0.01 0.02 0.02 0.03 0.03 0.03 0.02 0.02 0.02 0.04 0.07 0.09 0.13 0.15 0.12 0.07 0.04 0.02 0.01 0.01 0.01 0.01 0.01 0.02 0.04 0.06 0.10 0.15 0.22
0.08 0.09 0.07 0.05 0.03 0.01 0.01 0.00 0.00 0.01 0.01 0.02 0.02 0.03 0.03 0.03 0.03 0.03 0.03 0.05 0.06 0.10 0.14 0.16 0.12 0.06 0.03 0.01 0.01 0.01 0.01 0.01 0.02 0.03 0.05 0.08 0.11 0.16
0.05 0.09 0.07 0.05 0.03 0.01 0.00 0.00 0.00 0.00 0.01 0.01 0.01 0.01 0.01 0.02 0.03 0.02 0.03 0.04 0.07 0.09 0.13 0.17 0.18 0.10 0.04 0.02 0.02 0.03 0.02 0.02 0.02 0.03 0.04 0.06 0.08 0.11
0.04 0.07 0.07 0.04 0.02 0.01 0.00 0.00 0.00 0.00 0.00 0.00 0.00 0.00 0.00 0.01 0.02 0.03 0.04 0.06 0.07 0.09 0.12 0.16 0.20 0.13 0.07 0.04 0.03 0.03 0.03 0.04 0.05 0.05 0.05 0.05 0.06 0.05
0.03 0.05 0.05 0.02 0.01 0.01 0.00 0.00 0.01 0.00 0.00 0.00 0.00 0.00 0.00 0.01 0.01 0.02 0.04 0.06 0.08 0.09 0.13 0.15 0.19 0.16 0.09 0.06 0.06 0.06 0.05 0.04 0.04 0.06 0.07 0.08 0.07 0.04
0.00 0.01 0.00 0.00 0.00 0.00 0.00 0.00 0.00 0.00 0.00 0.00 0.00 0.00 0.01 0.01 0.02 0.02 0.03 0.05 0.08 0.10 0.12 0.14 0.16 0.16 0.10 0.06 0.06 0.08 0.08 0.06 0.05 0.04 0.05 0.09 0.10 0.08
0.00 0.00 0.00 0.00 0.00 0.00 0.00 0.00 0.00 0.00 0.00 0.00 0.01 0.01 0.01 0.01 0.01 0.02 0.03 0.04 0.06 0.09 0.12 0.13 0.14 0.17 0.13 0.07 0.04 0.06 0.09 0.11 0.08 0.06 0.06 0.06 0.06 0.06
0.00 0.00 0.00 0.00 0.00 0.00 0.00 0.00 0.00 0.00 0.00 0.00 0.01 0.01 0.01 0.01 0.02 0.03 0.04 0.05 0.06 0.09 0.14 0.16 0.18 0.20 0.19 0.13 0.06 0.04 0.06 0.10 0.11 0.08 0.07 0.08 0.08 0.07
0.00 0.00 0.00 0.00 0.00 0.00 0.00 0.00 0.00 0.00 0.00 0.00 0.00 0.01 0.01 0.01 0.02 0.04 0.06 0.06 0.08 0.12 0.16 0.21 0.24 0.25 0.26 0.23 0.16 0.10 0.07 0.07 0.09 0.09 0.08 0.09 0.10 0.09
0.00 0.00 0.00 0.00 0.00 0.00 0.00 0.00 0.00 0.00 0.00 0.00 0.00 0.01 0.01 0.02 0.03 0.04 0.06 0.08 0.09 0.13 0.16 0.21 0.24 0.26 0.30 0.34 0.29 0.18 0.11 0.09 0.09 0.09 0.08 0.08 0.09 0.09
0.00 0.00 0.00 0.00 0.00 0.00 0.00 0.00 0.00 0.00 0.00 0.00 0.00 0.01 0.01 0.02 0.03 0.04 0.06 0.07 0.09 0.12 0.16 0.20 0.23 0.24 0.26 0.33 0.40 0.29 0.17 0.11 0.10 0.10 0.10 0.09 0.08 0.08
0.00 0.00 0.00 0.00 0.00 0.00 0.00 0.00 0.00 0.00 0.00 0.00 0.00 0.00 0.01 0.02 0.03 0.03 0.05 0.08 0.09 0.12 0.15 0.19 0.23 0.26 0.23 0.20 0.24 0.32 0.26 0.15 0.10 0.10 0.11 0.10 0.09 0.06
0.01 0.00 0.00 0.00 0.00 0.00 0.00 0.00 0.00 0.00 0.00 0.00 0.00 0.00 0.01 0.01 0.02 0.03 0.05 0.07 0.08 0.10 0.13 0.17 0.23 0.24 0.22 0.18 0.17 0.23 0.26 0.22 0.14 0.09 0.08 0.06 0.06 0.06
0.01 0.01 0.01 0.01 0.00 0.00 0.00 0.00 0.00 0.00 0.00 0.00 0.00 0.00 0.00 0.01 0.02 0.03 0.04 0.05 0.07 0.09 0.11 0.15 0.18 0.21 0.22 0.20 0.20 0.20 0.21 0.20 0.18 0.12 0.06 0.03 0.02 0.02
0.03 0.02 0.02 0.01 0.01 0.00 0.00 0.00 0.00 0.00 0.00 0.00 0.00 0.00 0.00 0.00 0.01 0.02 0.03 0.04 0.06 0.07 0.09 0.12 0.14 0.16 0.19 0.20 0.20 0.18 0.15 0.13 0.11 0.09 0.08 0.05 0.02 0.01
MSLP
1021.16 1020.70 1020.18 1019.56 1018.80 1017.92 1016.91 1015.83 1014.72 1013.64 1012.63 1011.74 1010.96 1010.29 1009.71 1009.16 1008.63 1008.08 1007.52 1006.94 1006.40 1005.91 1005.53 1005.29 1005.20 1005.28 1005.52 1005.89 1006.36 1006.92 1007.52 1008.17 1008.86 1009.58 1010.33 1011.11 1011.92 1012.74
1020.17 1019.76 1019.31 1018.76 1018.08 1017.26 1016.32 1015.31 1014.26 1013.24 1012.30 1011.46 1010.76 1010.16 1009.64 1009.16 1008.68 1008.18 1007.65 1007.11 1006.57 1006.08 1005.68 1005.41 1005.28 1005.31 1005.47 1005.77 1006.17 1006.64 1007.17 1007.76 1008.39 1009.07 1009.80 1010.58 1011.40 1012.23
1019.07 1018.70 1018.31 1017.83 1017.24 1016.52 1015.68 1014.76 1013.81 1012.88 1012.03 1011.27 1010.63 1010.09 1009.62 1009.18 1008.73 1008.25 1007.73 1007.19 1006.66 1006.17 1005.76 1005.47 1005.31 1005.30 1005.42 1005.66 1006.00 1006.41 1006.88 1007.40 1007.98 1008.62 1009.32 1010.09 1010.90 1011.73
1018.04 1017.70 1017.36 1016.97 1016.47 1015.86 1015.13 1014.33 1013.50 1012.68 1011.92 1011.25 1010.68 1010.18 1009.73 1009.29 1008.84 1008.34 1007.81 1007.25 1006.70 1006.19 1005.77 1005.47 1005.29 1005.26 1005.35 1005.55 1005.84 1006.20 1006.62 1007.09 1007.62 1008.22 1008.89 1009.62 1010.41 1011.24
1017.24 1016.93 1016.64 1016.31 1015.91 1015.40 1014.79 1014.12 1013.41 1012.71 1012.05 1011.46 1010.93 1010.46 1010.01 1009.55 1009.06 1008.53 1007.95 1007.35 1006.76 1006.23 1005.78 1005.45 1005.25 1005.19 1005.25 1005.43 1005.68 1006.00 1006.38 1006.81 1007.30 1007.85 1008.48 1009.18 1009.94 1010.75
1016.78 1016.49 1016.24 1015.97 1015.64 1015.23 1014.73 1014.17 1013.57 1012.97 1012.40 1011.88 1011.39 1010.93 1010.47 1009.98 1009.44 1008.85 1008.22 1007.56 1006.91 1006.33 1005.84 1005.47 1005.24 1005.14 1005.17 1005.31 1005.53 1005.81 1006.15 1006.54 1006.98 1007.50 1008.09 1008.75 1009.48 1010.26
1016.74 1016.45 1016.22 1015.98 1015.70 1015.35 1014.93 1014.46 1013.95 1013.44 1012.94 1012.47 1012.01 1011.56 1011.09 1010.57 1009.98 1009.34 1008.64 1007.92 1007.21 1006.57 1006.02 1005.60 1005.31 1005.16 1005.14 1005.23 1005.40 1005.63 1005.93 1006.28 1006.68 1007.16 1007.71 1008.34 1009.05 1009.80
1017.09 1016.80 1016.56 1016.32 1016.05 1015.73 1015.35 1014.93 1014.48 1014.03 1013.58 1013.15 1012.72 1012.28 1011.80 1011.27 1010.65 1009.97 1009.22 1008.45 1007.68 1006.98 1006.36 1005.87 1005.51 1005.29 1005.19 1005.21 1005.32 1005.50 1005.74 1006.05 1006.42 1006.87 1007.39 1008.00 1008.68 1009.43
1017.76 1017.44 1017.18 1016.91 1016.63 1016.30 1015.92 1015.51 1015.09 1014.66 1014.25 1013.85 1013.45 1013.02 1012.55 1012.02 1011.39 1010.69 1009.92 1009.11 1008.30 1007.54 1006.85 1006.28 1005.84 1005.53 1005.35 1005.28 1005.32 1005.43 1005.63 1005.90 1006.24 1006.67 1007.18 1007.77 1008.45 1009.20
1018.62 1018.28 1017.97 1017.67 1017.34 1016.98 1016.57 1016.15 1015.71 1015.29 1014.89 1014.50 1014.11 1013.71 1013.26 1012.74 1012.13 1011.44 1010.67 1009.84 1009.01 1008.20 1007.46 1006.81 1006.28 1005.89 1005.61 1005.47 1005.43 1005.49 1005.64 1005.88 1006.21 1006.63 1007.15 1007.76 1008.45 1009.22
1019.54 1019.18 1018.84 1018.49 1018.11 1017.70 1017.25 1016.79 1016.33 1015.89 1015.47 1015.08 1014.70 1014.31 1013.87 1013.37 1012.79 1012.12 1011.36 1010.55 1009.71 1008.88 1008.09 1007.39 1006.80 1006.33 1005.98 1005.76 1005.67 1005.69 1005.82 1006.06 1006.40 1006.84 1007.39 1008.03 1008.75 1009.55
1020.38 1020.02 1019.66 1019.29 1018.88 1018.43 1017.94 1017.43 1016.93 1016.45 1016.01 1015.59 1015.20 1014.80 1014.37 1013.88 1013.32 1012.67 1011.94 1011.15 1010.31 1009.48 1008.68 1007.96 1007.33 1006.81 1006.43 1006.17 1006.06 1006.07 1006.21 1006.47 1006.85 1007.34 1007.93 1008.63 1009.40 1010.25
1021.06 1020.73 1020.39 1020.02 1019.60 1019.13 1018.62 1018.08 1017.54 1017.02 1016.53 1016.07 1015.63 1015.20 1014.75 1014.25 1013.69 1013.06 1012.35 1011.58 1010.77 1009.95 1009.17 1008.45 1007.82 1007.31 1006.92 1006.68 1006.58 1006.62 1006.80 1007.12 1007.56 1008.13 1008.79 1009.55 1010.39 1011.29
1021.51 1021.25 1020.97 1020.64 1020.25 1019.80 1019.29 1018.74 1018.17 1017.61 1017.07 1016.55 1016.05 1015.56 1015.06 1014.52 1013.94 1013.29 1012.59 1011.83 1011.05 1010.28 1009.53 1008.85 1008.26 1007.79 1007.45 1007.26 1007.22 1007.33 1007.59 1007.99 1008.52 1009.17 1009.92 1010.75 1011.65 1012.59
1021.75 1021.57 1021.37 1021.12 1020.80 1020.39 1019.92 1019.39 1018.82 1018.23 1017.64 1017.06 1016.49 1015.93 1015.35 1014.74 1014.11 1013.43 1012.71 1011.96 1011.21 1010.48 1009.79 1009.18 1008.66 1008.27 1008.02 1007.91 1007.96 1008.17 1008.52 1009.02 1009.64 1010.38 1011.21 1012.11 1013.06 1014.03
1021.76 1021.68 1021.58 1021.43 1021.20 1020.89 1020.48 1020.00 1019.46 1018.87 1018.26 1017.63 1016.99 1016.34 1015.67 1014.99 1014.28 1013.55 1012.80 1012.06 1011.33 1010.64 1010.02 1009.48 1009.06 1008.77 1008.61 1008.61 1008.77 1009.08 1009.53 1010.12 1010.83 1011.65 1012.54 1013.50 1014.48 1015.46
1021.60 1021.61 1021.61 1021.56 1021.44 1021.23 1020.92 1020.52 1020.04 1019.49 1018.88 1018.23 1017.54 1016.82 1016.08 1015.32 1014.54 1013.75 1012.98 1012.22 1011.51 1010.86 1010.30 1009.84 1009.51 1009.32 1009.27 1009.37 1009.62 1010.02 1010.55 1011.22 1011.99 1012.86 1013.79 1014.77 1015.77 1016.75
1021.30 1021.37 1021.44 1021.49 1021.47 1021.37 1021.18 1020.89 1020.51 1020.03 1019.47 1018.84 1018.15 1017.40 1016.61 1015.79 1014.96 1014.13 1013.32 1012.55 1011.85 1011.23 1010.72 1010.33 1010.08 1009.96 1009.99 1010.17 1010.49 1010.95 1011.54 1012.24 1013.04 1013.93 1014.87 1015.85 1016.84 1017.80
1020.93 1021.01 1021.12 1021.22 1021.29 1021.30 1021.23 1021.06 1020.80 1020.44 1019.98 1019.42 1018.78 1018.05 1017.26 1016.43 1015.57 1014.72 1013.89 1013.11 1012.42 1011.82 1011.35 1011.00 1010.80 1010.73 1010.81 1011.03 1011.39 1011.87 1012.47 1013.17 1013.97 1014.84 1015.76 1016.72 1017.68 1018.61
1020.52 1020.56 1020.66 1020.78 1020.90 1021.00 1021.04 1021.01 1020.90 1020.69 1020.36 1019.93 1019.38 1018.73 1018.00 1017.20 1016.36 1015.51 1014.68 1013.91 1013.22 1012.64 1012.18 1011.86 1011.68 1011.63 1011.73 1011.95 1012.31 1012.77 1013.35 1014.02 1014.79 1015.62 1016.51 1017.42 1018.34 1019.24
1020.12 1020.08 1020.11 1020.21 1020.35 1020.50 1020.64 1020.75 1020.79 1020.74 1020.59 1020.31 1019.91 1019.39 1018.75 1018.03 1017.25 1016.44 1015.65 1014.89 1014.22 1013.65 1013.20 1012.89 1012.71 1012.66 1012.74 1012.95 1013.27 1013.70 1014.23 1014.86 1015.57 1016.35 1017.19 1018.06 1018.94 1019.80
1019.75 1019.58 1019.52 1019.55 1019.67 1019.85 1020.07 1020.29 1020.47 1020.60 1020.63 1020.54 1020.31 1019.95 1019.46 1018.86 1018.17 1017.43 1016.69 1015.98 1015.33 1014.78 1014.34 1014.03 1013.84 1013.78 1013.84 1014.02 1014.31 1014.70 1015.18 1015.75 1016.40 1017.12 1017.91 1018.73 1019.57 1020.40
1019.43 1019.11 1018.91 1018.86 1018.92 1019.11 1019.37 1019.68 1020.00 1020.28 1020.49 1020.59 1020.56 1020.37 1020.04 1019.58 1019.02 1018.38 1017.72 1017.07 1016.47 1015.94 1015.52 1015.22 1015.04 1014.97 1015.02 1015.18 1015.43 1015.78 1016.22 1016.75 1017.35 1018.03 1018.77 1019.55 1020.35 1021.15
Thickness
5162 5171 5181 5192 5202 5213 5226 5241 5258 5279 5299 5319 5338 5358 5377 5399 5422 5445 5468 5490 5511 5531 5549 5566 5582 5596 5608 5619 5627 5634 5639 5642 5643 5646 5647 5648 5651 5653
5150 5162 5173 5184 5196 5207 5219 5232 5247 5264 5285 5305 5322 5341 5361 5383 5406 5429 5451 5474 5495 5515 5534 5551 5567 5582 5595 5606 5616 5624 5631 5636 5639 5641 5642 5643 5644 5646
5141 5154 5166 5178 5189 5201 5213 5225 5240 5255 5273 5293 5311 5330 5349 5369 5391 5412 5435 5458 5480 5501 5520 5538 5553 5569 5582 5593 5604 5614 5623 5628 5633 5636 5637 5639 5640 5640
5135 5147 5160 5173 5184 5196 5207 5219 5232 5246 5263 5282 5300 5319 5337 5355 5376 5397 5420 5443 5465 5487 5506 5524 5540 5555 5568 5580 5591 5602 5612 5619 5625 5630 5633 5635 5636 5635
5132 5143 5155 5167 5179 5191 5201 5213 5225 5240 5255 5272 5289 5307 5325 5343 5363 5385 5406 5428 5451 5473 5492 5510 5526 5542 5556 5568 5579 5590 5601 5610 5618 5624 5626 5629 5630 5630
5132 5142 5153 5164 5176 5186 5197 5207 5219 5232 5247 5262 5278 5295 5313 5331 5349 5369 5392 5413 5435 5457 5478 5495 5512 5529 5544 5556 5570 5580 5590 5598 5607 5614 5619 5622 5625 5626
5134 5142 5152 5162 5173 5183 5193 5203 5213 5224 5238 5252 5267 5283 5299 5316 5333 5352 5373 5397 5421 5442 5462 5481 5500 5517 5530 5544 5555 5568 5578 5588 5597 5605 5611 5615 5619 5621
5134 5142 5150 5157 5166 5176 5186 5196 5206 5216 5227 5239 5253 5269 5285 5302 5319 5337 5357 5381 5406 5428 5445 5465 5485 5501 5516 5531 5544 5557 5568 5578 5587 5595 5602 5607 5612 5615
5132 5139 5147 5153 5159 5166 5175 5185 5195 5207 5218 5228 5241 5256 5273 5291 5309 5328 5344 5363 5386 5407 5427 5451 5471 5487 5502 5518 5532 5546 5558 5568 5577 5585 5593 5599 5604 5607
5130 5136 5143 5149 5157 5162 5168 5177 5186 5196 5208 5220 5234 5249 5265 5282 5299 5315 5332 5353 5374 5396 5413 5434 5456 5472 5488 5504 5520 5535 5548 5558 5567 5575 5583 5590 5595 5599
5128 5133 5140 5146 5154 5159 5164 5172 5180 5189 5201 5214 5227 5241 5257 5274 5291 5307 5325 5344 5366 5387 5402 5420 5441 5457 5473 5489 5506 5522 5536 5548 5557 5565 5573 5579 5584 5587
5126 5130 5137 5144 5150 5156 5159 5167 5176 5183 5194 5207 5220 5234 5249 5265 5281 5295 5311 5329 5348 5370 5389 5407 5426 5441 5457 5471 5489 5507 5522 5534 5544 5553 5561 5567 5573 5576
5124 5127 5132 5139 5144 5150 5156 5162 5171 5178 5188 5200 5214 5228 5243 5258 5274 5289 5304 5319 5335 5354 5374 5390 5410 5426 5443 5457 5471 5488 5505 5518 5529 5537 5545 5552 5559 5565
5123 5125 5129 5135 5139 5144 5150 5158 5165 5174 5183 5195 5207 5221 5236 5251 5268 5284 5299 5313 5327 5343 5361 5378 5396 5414 5429 5444 5456 5470 5485 5498 5511 5519 5526 5532 5538 5543
5125 5127 5128 5131 5134 5138 5145 5152 5158 5167 5177 5187 5199 5213 5227 5243 5261 5278 5295 5309 5324 5338 5355 5372 5389 5404 5419 5433 5444 5455 5466 5475 5487 5498 5504 5510 5515 5521
5129 5126 5126 5128 5130 5134 5139 5145 5152 5161 5170 5179 5192 5206 5222 5238 5255 5270 5286 5300 5316 5331 5347 5364 5380 5395 5408 5421 5433 5440 5449 5457 5465 5477 5484 5487 5491 5497
5136 5130 5127 5127 5128 5131 5135 5140 5147 5155 5164 5175 5186 5200 5215 5230 5245 5261 5275 5290 5302 5317 5333 5350 5366 5381 5392 5405 5415 5424 5433 5441 5448 5458 5467 5467 5468 5473
5143 5134 5129 5127 5127 5128 5131 5136 5142 5149 5158 5168 5180 5192 5206 5220 5235 5250 5264 5277 5291 5303 5319 5335 5352 5368 5378 5383 5392 5406 5418 5425 5430 5439 5450 5454 5449 5451
5147 5140 5134 5131 5129 5128 5129 5132 5137 5144 5152 5162 5173 5184 5197 5211 5225 5239 5253 5266 5278 5291 5305 5321 5338 5357 5368 5368 5369 5385 5401 5409 5415 5420 5427 5435 5435 5433
5153 5147 5141 5136 5133 5131 5130 5132 5135 5141 5148 5156 5166 5177 5188 5201 5215 5227 5241 5254 5266 5279 5293 5307 5323 5337 5352 5358 5360 5365 5379 5392 5401 5406 5409 5413 5415 5416
5160 5154 5148 5143 5139 5135 5133 5133 5134 5138 5144 5151 5160 5169 5180 5192 5204 5217 5229 5243 5255 5268 5280 5293 5306 5321 5333 5345 5350 5352 5361 5371 5382 5391 5397 5400 5401 5400
5168 5162 5156 5150 5145 5140 5136 5134 5134 5137 5141 5147 5154 5163 5173 5184 5196 5207 5219 5231 5243 5255 5268 5280 5293 5307 5320 5332 5337 5341 5346 5354 5362 5370 5379 5387 5392 5391
5174 5169 5163 5157 5151 5145 5140 5137 5136 5137 5139 5144 5150 5158 5167 5177 5187 5199 5210 5221 5233 5245 5257 5268 5280 5291 5302 5312 5321 5326 5332 5340 5347 5355 5360 5368 5376 5379